Home   Weather   Cleveland   Past weeks
Flag for USA

Past Weather in Cleveland, Ohio, USA — Yesterday and Last 2 Weeks

Now
51 °F

Partly sunny.


Feels Like: 49 °F
Forecast: 58 / 48 °F
Wind: 7 mph from Southeast

Location: Cleveland-Hopkins International Airport

Current Time: Apr 25, 2019 at 8:02:40 am

Latest Report: Apr 25, 2019 at 6:51 am


Visibility: 10 mi

Pressure: 29.89 "Hg

Humidity: 69%

Dew Point: 41 °F

Location of ClevelandLocation

Past Weather in Cleveland — Graph

°F

Cleveland Temperature Yesterday

Maximum temperature yesterday: 54 °F (at 4:51 pm)
Minimum temperature yesterday: 40 °F (at 6:51 am)
Average temperature yesterday: 49 °F

High & Low Weather Summary for the Past Weeks

 TemperatureHumidityPressure
High78 °F (Apr 18, 4:51 pm)97% (Apr 14, 7:51 pm)30.28 "Hg (Apr 14, 7:51 pm)
Low35 °F (Apr 15, 5:51 am)31% (Apr 13, 2:51 pm)29.28 "Hg (Apr 14, 6:04 pm)
Average52 °F69%29.88 "Hg
* Reported Apr 10 6:51 am — Apr 25 6:51 am, Cleveland. Weather by CustomWeather, © 2019

Note: Actual official high and low records may vary slightly from our data, if they occured in-between our weather recording intervals... More about our weather records

Advertising

Cleveland Weather History for the Previous 24 Hours

Scroll right to see more
 ConditionsComfort  
Time TempWeatherWind HumidityBarometerVisibility
6:51 am
Thu, Apr 25
51 °FPartly sunny.7 mph69%29.89 "Hg10 mi
5:51 am51 °FMostly cloudy.3 mph66%29.90 "Hg10 mi
4:51 am49 °FLight rain. Overcast.5 mph69%29.91 "Hg10 mi
3:51 am50 °FMostly cloudy.3 mph63%29.91 "Hg10 mi
2:51 am48 °FPartly cloudy.3 mph66%29.91 "Hg10 mi
1:51 am49 °FOvercast.5 mph61%29.92 "Hg10 mi
12:51 am51 °FOvercast.7 mph52%29.92 "Hg10 mi
11:51 pm
Wed, Apr 24
51 °FPartly cloudy.5 mph50%29.94 "Hg10 mi
10:51 pm52 °FOvercast.5 mph50%29.96 "Hg10 mi
9:51 pm52 °FOvercast.6 mph49%29.96 "Hg10 mi
8:51 pm51 °FMostly cloudy.No wind52%29.98 "Hg10 mi
7:51 pm51 °FMostly cloudy.5 mph56%29.98 "Hg10 mi
6:51 pm52 °FOvercast.5 mph50%29.98 "Hg10 mi
5:51 pm54 °FPartly sunny.7 mph51%29.98 "Hg10 mi
4:51 pm54 °FBroken clouds.6 mph53%29.98 "Hg10 mi
3:51 pm52 °FPartly sunny.8 mph61%30.00 "Hg10 mi
2:51 pm53 °FPartly sunny.9 mph61%30.03 "Hg10 mi
1:51 pm52 °FPartly sunny.8 mph64%30.04 "Hg10 mi
12:51 pm53 °FPartly sunny.9 mph59%30.05 "Hg10 mi
11:51 am52 °FScattered clouds.7 mph61%30.05 "Hg10 mi
10:51 am51 °FScattered clouds.5 mph63%30.06 "Hg10 mi
9:51 am49 °FPartly sunny.6 mph66%30.06 "Hg10 mi
9:26 am48 °FPartly sunny.No wind66%30.05 "Hg10 mi
8:51 am48 °FScattered clouds.No wind68%30.06 "Hg10 mi
Weather by CustomWeather, © 2019

See weather overview